KD2BVA Weather Reports


Display with metric or nautical units.
time (UTC)temp
F
wind
direction
speed
MPH
gust
MPH
rain 1hr
in
rain 24hr
in
rain mn
in
humidity
%
barometer
mb
20260505124528 62 98 2.0 9.0 0.00 0.00 0.00 68 992.0
20260505124039 61 139 3.0 9.0 0.00 0.00 0.00 68 992.0
20260505123548 61 212 1.0 11.0 0.00 0.00 0.00 69 991.9
20260505123027 61 209 3.0 8.0 0.00 0.00 0.00 69 991.9
20260505122538 61 217 2.0 8.0 0.00 0.00 0.00 70 991.9
20260505122046 60 107 1.0 8.0 0.00 0.00 0.00 71 991.9
20260505091533 47 91 0.0 0.0 0.00 0.00 0.00 91 991.5
20260505091043 47 91 0.0 0.0 0.00 0.00 0.00 91 991.5
20260505090533 47 91 0.0 0.0 0.00 0.00 0.00 91 991.6
20260505090042 47 91 0.0 0.0 0.00 0.00 0.00 92 991.6
20260505085547 47 91 0.0 0.0 0.00 0.00 0.00 92 991.6
20260505085025 46 91 0.0 0.0 0.00 0.00 0.00 92 991.6
20260505084545 46 91 0.0 0.0 0.00 0.00 0.00 92 991.6
20260505084027 46 91 0.0 0.0 0.00 0.00 0.00 92 991.7
20260505083538 46 91 0.0 0.0 0.00 0.00 0.00 92 991.7
20260505083025 46 91 0.0 0.0 0.00 0.00 0.00 92 991.7
20260505082532 45 91 0.0 0.0 0.00 0.00 0.00 92 991.7
20260505082042 45 91 0.0 0.0 0.00 0.00 0.00 92 991.8
20260505081531 45 91 0.0 0.0 0.00 0.00 0.00 92 991.8
20260505081034 45 91 0.0 0.0 0.00 0.00 0.00 92 991.7
20260505080535 45 91 0.0 0.0 0.00 0.00 0.00 92 991.8
20260505080023 45 91 0.0 0.0 0.00 0.00 0.00 93 991.8
20260505075523 45 91 0.0 0.0 0.00 0.00 0.00 93 991.7
20260505075033 44 91 0.0 0.0 0.00 0.00 0.00 92 991.7
20260505074524 44 91 0.0 0.0 0.00 0.00 0.00 92 991.7
20260505074025 44 91 0.0 0.0 0.00 0.00 0.00 92 991.7
20260505073536 44 91 0.0 0.0 0.00 0.00 0.00 92 991.7
20260505073025 44 91 0.0 0.0 0.00 0.00 0.00 92 991.7
20260505072523 44 91 0.0 0.0 0.00 0.00 0.00 92 991.7
20260505072032 44 91 0.0 0.0 0.00 0.00 0.00 92 991.7
20260505071523 44 91 0.0 0.0 0.00 0.00 0.00 91 991.7
20260505071023 44 91 0.0 0.0 0.00 0.00 0.00 91 991.7
20260505070534 44 91 0.0 0.0 0.00 0.00 0.00 91 991.7
20260505070043 44 91 0.0 0.0 0.00 0.00 0.00 91 991.7
20260505065523 44 91 0.0 0.0 0.00 0.00 0.00 92 991.7
20260505065033 44 91 0.0 0.0 0.00 0.00 0.00 91 991.7
20260505064544 44 91 0.0 0.0 0.00 0.00 0.00 90 991.8
20260505064026 45 91 0.0 0.0 0.00 0.00 0.00 89 991.7
20260505063533 45 91 0.0 0.0 0.00 0.00 0.00 90 991.8
20260505063041 45 91 0.0 0.0 0.00 0.00 0.00 89 991.8
20260505062520 45 91 0.0 0.0 0.00 0.00 0.00 89 991.8
20260505062030 46 91 0.0 0.0 0.00 0.00 0.00 89 991.7
20260505061532 46 91 0.0 0.0 0.00 0.00 0.00 89 991.7
20260505061022 46 91 0.0 0.0 0.00 0.00 0.00 89 991.8
20260505060534 46 91 0.0 0.0 0.00 0.00 0.00 88 991.9
20260505060105 46 91 0.0 0.0 0.00 0.00 0.00 88 991.8
20260505055554 46 91 0.0 0.0 0.00 0.00 0.00 88 991.7
20260505055103 46 91 0.0 0.0 0.00 0.00 0.00 88 991.8
20260505054541 46 91 0.0 0.0 0.00 0.00 0.00 87 991.8
20260505054049 46 91 0.0 0.0 0.00 0.00 0.00 87 991.8
20260505053607 46 91 0.0 0.0 0.00 0.00 0.00 86 991.8
20260505053045 46 91 0.0 0.0 0.00 0.00 0.00 86 991.8
20260505052552 46 91 0.0 0.0 0.00 0.00 0.00 86 991.8
20260505052040 46 91 0.0 0.0 0.00 0.00 0.00 86 991.8
20260505051548 47 91 0.0 0.0 0.00 0.00 0.00 86 991.8
20260505051057 47 91 0.0 0.0 0.00 0.00 0.00 86 991.8
20260505050548 47 91 0.0 0.0 0.00 0.00 0.00 86 991.8
20260505041525 47 91 0.0 0.0 0.00 0.00 0.00 85 991.7
20260505041026 48 91 0.0 0.0 0.00 0.00 0.00 85 991.7
20260505040537 48 91 0.0 0.0 0.00 0.00 0.00 85 991.7
20260505040042 48 91 0.0 0.0 0.00 0.00 0.00 85 991.6
20260505035522 48 91 0.0 0.0 0.00 0.00 0.00 85 991.6
20260505035033 48 91 0.0 0.0 0.00 0.00 0.00 85 991.6
20260505034543 48 91 0.0 0.0 0.00 0.00 0.00 84 991.5
20260505034023 48 91 0.0 0.0 0.00 0.00 0.00 84 991.4
20260505033534 48 91 0.0 0.0 0.00 0.00 0.00 84 991.4
20260505033043 49 91 0.0 0.0 0.00 0.00 0.00 84 991.4
20260505032523 49 91 0.0 0.0 0.00 0.00 0.00 84 991.4
20260505032035 49 91 0.0 0.0 0.00 0.00 0.00 84 991.4
20260505031541 49 91 0.0 0.0 0.00 0.00 0.00 83 991.3
20260505031038 49 91 0.0 0.0 0.00 0.00 0.00 83 991.3
20260505030030 49 91 0.0 0.0 0.00 0.00 0.00 83 991.3
20260505025539 50 91 0.0 0.0 0.00 0.00 0.00 81 991.3
20260505025047 50 91 0.0 0.0 0.00 0.00 0.00 80 991.3
20260505024556 50 91 0.0 0.0 0.00 0.00 0.00 79 991.3
20260505024043 50 91 0.0 0.0 0.00 0.00 0.00 78 991.4
20260505023552 51 91 0.0 0.0 0.00 0.00 0.00 78 991.4
20260505023101 51 91 0.0 0.0 0.00 0.00 0.00 77 991.5
20260505022547 51 91 0.0 0.0 0.00 0.00 0.00 77 991.5
20260505022051 51 91 0.0 0.0 0.00 0.00 0.00 75 991.5
20260505021600 51 91 0.0 0.0 0.00 0.00 0.00 73 991.5
20260505021046 52 91 0.0 0.0 0.00 0.00 0.00 72 991.5
20260505020555 52 91 0.0 0.0 0.00 0.00 0.00 71 991.6
20260505020041 52 91 0.0 0.0 0.00 0.00 0.00 71 991.6
20260505015549 52 91 0.0 0.0 0.00 0.00 0.00 70 991.5
20260505015058 53 91 0.0 0.0 0.00 0.00 0.00 70 991.5
20260505014546 53 91 0.0 0.0 0.00 0.00 0.00 69 991.5
20260505014027 53 91 0.0 0.0 0.00 0.00 0.00 69 991.4
20260505013534 53 91 0.0 0.0 0.00 0.00 0.00 69 991.4
20260505013033 54 91 0.0 0.0 0.00 0.00 0.00 68 991.4
20260505012522 54 91 0.0 0.0 0.00 0.00 0.00 67 991.3
20260505012032 54 91 0.0 0.0 0.00 0.00 0.00 67 991.3
20260505011534 55 91 0.0 0.0 0.00 0.00 0.00 66 991.3
20260505011023 55 91 0.0 0.0 0.00 0.00 0.00 64 991.3
20260505010536 55 91 0.0 0.0 0.00 0.00 0.00 64 991.3
20260505010034 56 91 0.0 0.0 0.00 0.00 0.00 63 991.2
20260505005523 56 91 0.0 0.0 0.00 0.00 0.00 61 991.1
20260505005022 57 91 0.0 0.0 0.00 0.00 0.00 61 991.0
20260505004533 57 91 0.0 0.0 0.00 0.00 0.00 61 990.9
20260505004022 58 91 0.0 0.0 0.00 0.00 0.00 60 990.9
20260505003524 58 91 0.0 0.0 0.00 0.00 0.00 59 990.9
20260505003032 59 91 0.0 0.0 0.00 0.00 0.00 58 990.9
20260505002541 59 91 0.0 0.0 0.00 0.00 0.00 56 990.8
20260505002041 60 91 0.0 0.0 0.00 0.00 0.00 55 990.8
20260505001539 61 91 0.0 0.0 0.00 0.00 0.00 52 990.8
20260505001028 62 91 0.0 0.0 0.00 0.00 0.00 51 990.8
20260505000527 63 91 0.0 0.0 0.00 0.00 0.00 50 990.7
20260505000035 64 91 0.0 0.0 0.00 0.00 0.00 49 990.7
20260504235524 65 91 0.0 0.0 0.00 0.00 0.00 48 990.7
20260504235025 65 91 0.0 0.0 0.00 0.00 0.00 46 990.6
20260504234534 66 91 0.0 0.0 0.00 0.00 0.00 46 990.6
20260504234022 67 91 0.0 0.0 0.00 0.00 0.00 45 990.6
20260504233524 67 91 0.0 0.0 0.00 0.00 0.00 44 990.5
20260504233031 68 91 0.0 0.0 0.00 0.00 0.00 42 990.5
20260504232542 68 91 0.0 1.0 0.00 0.00 0.00 42 990.5
20260504232023 69 95 0.0 5.0 0.00 0.00 0.00 41 990.4
20260504231534 70 25 0.0 5.0 0.00 0.00 0.00 40 990.4
20260504231043 70 320 0.0 5.0 0.00 0.00 0.00 39 990.4
20260504230526 71 245 0.0 6.0 0.00 0.00 0.00 39 990.3
20260504230035 71 224 1.0 8.0 0.00 0.00 0.00 38 990.2
20260504225545 72 198 2.0 8.0 0.00 0.00 0.00 37 990.1
20260504225023 72 255 1.0 6.0 0.00 0.00 0.00 38 990.0
20260504224534 72 240 2.0 7.0 0.00 0.00 0.00 37 990.0
20260504224043 72 248 3.0 7.0 0.00 0.00 0.00 37 990.0
20260504223526 72 232 1.0 8.0 0.00 0.00 0.00 37 989.9
20260504223030 72 223 2.0 8.0 0.00 0.00 0.00 37 990.0
20260504222531 72 263 1.0 7.0 0.00 0.00 0.00 36 990.0
20260504222021 72 223 1.0 6.0 0.00 0.00 0.00 38 990.1
20260504221532 73 238 1.0 8.0 0.00 0.00 0.00 37 990.0
20260504221032 73 248 2.0 8.0 0.00 0.00 0.00 35 990.0
20260504220524 74 229 2.0 8.0 0.00 0.00 0.00 35 990.0
20260504220048 74 359 2.0 7.0 0.00 0.00 0.00 34 990.0
20260504215530 74 248 3.0 11.0 0.00 0.00 0.00 35 989.9
20260504215019 74 221 3.0 10.0 0.00 0.00 0.00 33 989.9
20260504214520 75 290 2.0 9.0 0.00 0.00 0.00 35 989.9
20260504214029 75 253 2.0 9.0 0.00 0.00 0.00 35 990.0
20260504213540 74 203 2.0 10.0 0.00 0.00 0.00 36 990.0
20260504213047 74 93 3.0 10.0 0.00 0.00 0.00 34 990.1
20260504212528 74 22 2.0 8.0 0.00 0.00 0.00 37 990.0
20260504212037 73 219 1.0 10.0 0.00 0.00 0.00 35 990.0
20260504211538 74 89 3.0 10.0 0.00 0.00 0.00 35 990.1
20260504211026 74 304 2.0 13.0 0.00 0.00 0.00 34 990.0
20260504210547 74 243 5.0 13.0 0.00 0.00 0.00 33 990.1
20260504210026 74 214 2.0 7.0 0.00 0.00 0.00 34 990.0
20260504205532 74 266 1.0 5.0 0.00 0.00 0.00 34 990.1
20260504205032 74 262 1.0 10.0 0.00 0.00 0.00 35 990.1
20260504204521 74 226 4.0 15.0 0.00 0.00 0.00 33 990.1
20260504204030 74 257 1.0 10.0 0.00 0.00 0.00 35 990.1
20260504203529 74 252 3.0 12.0 0.00 0.00 0.00 35 990.2
20260504203037 74 232 2.0 11.0 0.00 0.00 0.00 35 990.3
20260504202524 74 233 2.0 11.0 0.00 0.00 0.00 36 990.3
20260504202024 74 302 3.0 7.0 0.00 0.00 0.00 36 990.4
20260504201535 74 338 2.0 7.0 0.00 0.00 0.00 37 990.4
20260504201045 74 275 2.0 7.0 0.00 0.00 0.00 37 990.4
20260504200527 73 249 3.0 7.0 0.00 0.00 0.00 37 990.5
20260504200037 72 235 2.0 8.0 0.00 0.00 0.00 39 990.6
20260504195546 72 151 3.0 8.0 0.00 0.00 0.00 37 990.7
20260504195027 71 238 2.0 11.0 0.00 0.00 0.00 41 990.6
20260504194537 71 231 2.0 11.0 0.00 0.00 0.00 38 990.7
20260504194046 72 193 4.0 9.0 0.00 0.00 0.00 37 990.8
20260504193529 72 254 3.0 12.0 0.00 0.00 0.00 38 991.0
20260504193035 71 49 4.0 12.0 0.00 0.00 0.00 37 990.8
20260504192531 71 293 2.0 18.0 0.00 0.00 0.00 38 991.0
20260504192021 71 260 4.0 18.0 0.00 0.00 0.00 39 991.1
20260504191528 72 302 5.0 16.0 0.00 0.00 0.00 37 991.0
20260504191028 72 230 4.0 11.0 0.00 0.00 0.00 37 991.1
20260504190540 71 306 3.0 15.0 0.00 0.00 0.00 40 991.1
20260504190045 71 276 3.0 11.0 0.00 0.00 0.00 39 991.2
20260504185526 71 309 5.0 11.0 0.00 0.00 0.00 37 991.2
20260504185035 71 269 3.0 14.0 0.00 0.00 0.00 39 991.2
20260504184545 71 286 5.0 14.0 0.00 0.00 0.00 38 991.2
20260504184024 71 294 3.0 12.0 0.00 0.00 0.00 39 991.3
20260504183536 70 243 4.0 12.0 0.00 0.00 0.00 41 991.3
20260504183044 69 221 1.0 9.0 0.00 0.00 0.00 44 991.4
20260504182524 69 248 2.0 9.0 0.00 0.00 0.00 42 991.4
20260504182034 69 248 2.0 11.0 0.00 0.00 0.00 41 991.4
20260504181543 70 63 2.0 11.0 0.00 0.00 0.00 39 991.4
20260504181024 71 281 5.0 11.0 0.00 0.00 0.00 38 991.4
20260504180535 71 23 4.0 14.0 0.00 0.00 0.00 39 991.4
20260504180033 71 108 5.0 14.0 0.00 0.00 0.00 39 991.4
20260504175522 71 247 3.0 10.0 0.00 0.00 0.00 41 991.4
20260504175028 71 245 2.0 13.0 0.00 0.00 0.00 40 991.6
20260504174530 71 155 2.0 13.0 0.00 0.00 0.00 41 991.6
20260504174039 71 217 3.0 12.0 0.00 0.00 0.00 42 991.5
20260504173550 70 139 2.0 12.0 0.00 0.00 0.00 41 991.5
20260504173029 70 214 3.0 9.0 0.00 0.00 0.00 42 991.7
20260504172539 69 213 3.0 10.0 0.00 0.00 0.00 41 991.7
20260504172049 70 269 2.0 10.0 0.00 0.00 0.00 41 991.7
20260504171530 69 274 3.0 11.0 0.00 0.00 0.00 44 991.8
20260504171020 69 278 3.0 11.0 0.00 0.00 0.00 42 991.9
20260504170522 68 260 2.0 5.0 0.00 0.00 0.00 44 991.9
20260504151026 62 266 1.0 5.0 0.00 0.00 0.00 52 993.1
20260504150538 61 269 1.0 5.0 0.00 0.00 0.00 53 993.2
20260504141035 57 261 1.0 4.0 0.00 0.00 0.00 56 993.7
20260504140546 57 254 1.0 4.0 0.00 0.00 0.00 56 993.9